DELTA 1 DEB, 12647

Orbit data source: Space-Track

DELTA 1 DEB, 12647 is space debris in LEO originally from a launch on Thu, 29 Jul 1976 UTC launched from the Air Force Western Test Range (AFWTR). Debris objects in space refer to the collection of defunct objects orbiting the Earth. Examples of debris include non-operational satellites, rocket bodies, and fragments generated from explosions, collisions, or faulty payload assembly.

Loading next visibility...
Identifier
12647, 1976-077EA
Orbit
LEO
Country
Flag of USUS
Related business
Manufacturer
Unknown
Mission
Spacecraft
Bus & Motor
Unknown
Mass
Unknown
Launch date (UTC)
1976-07-29 (50 years ago)
Launch vehicle
Unknown
Launch site
Air Force Western Test Range (AFWTR)
Object type
Payload
Rocket body
Debris
Shape & HBR
Unknown shape, 0.1 m
Radar Cross Section
Small (<0.1 m²)

Expand to show TLE details & history
Last TLE update: 1 day ago

TLE from 1 day ago
0 DELTA 1 DEB
1 12647U 76077EA  26037.24087425 -.00000744  00000-0 -85922-2 0  9992
2 12647 100.6679 139.7801 0372693 102.0908 289.6042 11.86698510 72397
Epoch: 2026-02-06T05:46Z
TLE epoch observation values (Epoch: 2026-02-06T05:46:51.535Z)
Latitude
27.1311°
Longitude
-88.82847°
Altitude
1,652.612 km
Speed
7.088 km/s
True Right ascension
08h 57m 04s
True Declination
27° 00' 26"
Sunlit
Object was in full shadow at epoch
Visualization orbit readout
Latitude
Unknown
Longitude
Unknown
Altitude
Unknown
Speed
Unknown
Apparent Right ascension
Unknown
Apparent Declination
Unknown
Sunlit
N/A
Visualization observer readout
Local Sidereal Time
11:31:05
Azimuth
Unknown
Elevation
Unknown
Doppler factor
Unknown
Orbital elements
Apogee altitude
2,041.039 km
Perigee altitude
1,436.034 km
Semi-major axis
8,116.674 km
Eccentricity
0.03727
Inclination
100.6679°
RAAN
139.7801°
Arg. of periapsis
102.0908°
True anomaly
285.52064°
Mean anomaly
289.6042°
Eccentric anomaly
287.56843°
Mean motion
2.96808 °/min
Orbital period
121.29 mins
BSTAR
-0.0085922
Loading maneuver chart data...
Computing Atmospheric mass density...
Loading historical data...
Loading historical data...
Loading historical data...
Loading historical data...
Loading historical data...
Loading historical data...
Loading historical data...

Documentation

Showing up to 5 results
|